Lanai City, HI

8:49 AM HST on April 26, 2017 (GMT -1000)
Lanai City

Weather History for PHNY - June, 2013

Change the Weather History Date:

Wednesday, June 19, 2013

  Actual Average Record
Temperature  
Mean Temperature 76 °F -  
Max Temperature 83 °F 81 °F 84 °F (1978)
Min Temperature 70 °F 64 °F 57 °F (1951)
Cooling Degree Days 12    
Growing Degree Days 26 (Base 50)    
Moisture  
Dew Point 64 °F    
Average Humidity 65    
Maximum Humidity 83    
Minimum Humidity 51    
Precipitation  
Precipitation 0.01 in - - ()
Sea Level Pressure  
Sea Level Pressure 30.06 in    
Wind  
Wind Speed 11 mph (NNE)    
Max Wind Speed 26 mph    
Max Gust Speed 31 mph    
Visibility 10 miles    
Events Rain    
Averages and records for this station are not official NWS values.
T = Trace of Precipitation, MM = Missing Value Source: NWS Daily Summary

Daily Weather History Graph

Daily Weather History Graph

Search for Another Location

Airport or City:

Trip Planner

Search our weather history database for the weather conditions in past years. The results will help you decide how hot, cold, wet, or windy it might be!

Date:

Astronomy

Jun. 19, 2013 Rise Set
Actual Time 5:47 AM HST 7:11 PM HST
Civil Twilight 5:22 AM HST 7:35 PM HST
Nautical Twilight 4:53 AM HST 8:05 PM HST
Astronomical Twilight 4:22 AM HST 8:35 PM HST
Moon 3:34 PM HST (6/19) 2:17 AM HST (6/19)
Length of Visible Light 14h 13m
Length of Day
13h 23m
Waxing Gibbous, 82% of the Moon is Illuminated
Jun 19
Waxing Gibbous
Jun 23
Full
Jun 29
Last Quarter
Jul 7
New
Jul 15
First Quarter

Hourly Weather History & Observations

Time (HST) Temp. Heat Index Dew Point Humidity Pressure Visibility Wind Dir Wind Speed Gust Speed Precip Events Conditions
6:50 AM 71.6 °F - 66.2 °F 83% 30.11 in 10.0 mi NE 5.8 mph - N/A   Partly Cloudy
7:50 AM 75.2 °F - 66.2 °F 73% 30.10 in 10.0 mi NE 3.5 mph - N/A   Partly Cloudy
7:56 AM 77.0 °F - 65.8 °F 68% 30.06 in 10.0 mi Calm Calm - N/A   Clear
8:50 AM 80.6 °F 82.3 °F 64.4 °F 58% 30.13 in 10.0 mi NE 11.5 mph - N/A   Scattered Clouds
8:56 AM 79.9 °F - 64.9 °F 60% 30.06 in 10.0 mi NE 11.5 mph - N/A   Clear
9:50 AM 82.4 °F 83.4 °F 62.6 °F 51% 30.12 in 10.0 mi North 11.5 mph - N/A   Scattered Clouds
9:56 AM 82.9 °F 84.0 °F 63.0 °F 51% 30.05 in 10.0 mi North 10.4 mph - N/A   Partly Cloudy
10:56 AM 83.8 °F 85.1 °F 63.9 °F 51% 30.06 in 10.0 mi NNE 15.0 mph - N/A   Clear
11:39 AM 80.6 °F 82.3 °F 64.4 °F 58% 30.13 in 10.0 mi SW 10.4 mph - N/A   Mostly Cloudy
11:56 AM 77.9 °F - 64.9 °F 64% 30.06 in 10.0 mi SSW 9.2 mph - N/A   Mostly Cloudy
12:56 PM 74.8 °F - 65.8 °F 73% 30.06 in 10.0 mi West 3.5 mph - 0.01 in Rain Light Rain
1:31 PM 80.6 °F 82.3 °F 64.4 °F 58% 30.11 in 10.0 mi NNE 13.8 mph 19.6 mph 0.00 in   Partly Cloudy
1:41 PM 82.4 °F 83.9 °F 64.4 °F 54% 30.11 in 10.0 mi NE 13.8 mph 20.7 mph 0.00 in   Partly Cloudy
1:56 PM 81.9 °F 83.2 °F 63.9 °F 54% 30.03 in 10.0 mi NNE 13.8 mph 19.6 mph 0.00 in   Partly Cloudy
2:56 PM 82.9 °F 84.2 °F 63.9 °F 52% 30.01 in 10.0 mi NE 20.7 mph 25.3 mph N/A   Clear
3:56 PM 81.0 °F 82.5 °F 63.9 °F 56% 30.01 in 10.0 mi NE 17.3 mph - N/A   Partly Cloudy
4:56 PM 79.0 °F - 63.9 °F 60% 30.01 in 10.0 mi NE 25.3 mph 31.1 mph N/A   Scattered Clouds
5:56 PM 75.9 °F - 63.9 °F 66% 30.01 in 10.0 mi NE 26.5 mph 29.9 mph N/A   Clear
6:56 PM 72.9 °F - 63.9 °F 73% 30.02 in 10.0 mi ENE 16.1 mph 23.0 mph N/A   Clear
7:56 PM 70.9 °F - 63.9 °F 78% 30.04 in 10.0 mi NE 20.7 mph 26.5 mph N/A   Clear
8:56 PM 70.9 °F - 63.9 °F 78% 30.05 in 10.0 mi NE 19.6 mph 25.3 mph N/A   Clear
9:56 PM 70.9 °F - 64.9 °F 81% 30.06 in 10.0 mi NE 13.8 mph - N/A   Partly Cloudy
10:56 PM 70.0 °F - 63.9 °F 81% 30.06 in 10.0 mi NE 13.8 mph - N/A   Clear
11:56 PM 70.9 °F - 63.9 °F 78% 30.05 in 10.0 mi NNE 11.5 mph - N/A   Mostly Cloudy